Surface/Precipitation History
11/25/2014 02:55  to  11/26/2014 02:55
Change End Date:
Date/Time
(MST)
Sf
Temp Chem Water Layer Surface Precipitation
Sf Sub Frz Factor Pct Depth IcePct Cond Salin Type Intens Accum Rate
11/26/2014 02:53 Ice Warning 31.3F 31F 32F 5 0% - 100% 0 mhos 2 None None - -
11/26/2014 02:51 Ice Warning 31.3F 32F 32F 5 0% - 100% 0 mhos 2 None None - -
11/26/2014 02:41 Ice Warning 31.5F 32F 32F 5 0% - 100% 0 mhos 2 None None - -
11/26/2014 02:31 Ice Warning 31.5F 31F 32F 5 0% - 100% 0 mhos 2 None None - -
11/26/2014 02:23 Ice Warning 31.5F 31F 32F 5 0% - 100% 0 mhos 2 None None - -
11/26/2014 02:21 Ice Warning 31.5F 31F 32F 5 0% - 100% 0 mhos 2 None None - -
11/26/2014 02:11 Ice Warning 31.5F 31F 32F 5 0% - 100% 0 mhos 2 None None - -
11/26/2014 02:01 Ice Warning 31.5F 31F 32F 5 0% - 100% 0 mhos 2 None None - -
11/26/2014 01:53 Ice Warning 31.6F 31F 32F 5 0% - 99% 0 mhos 2 None None - -
11/26/2014 01:51 Ice Warning 31.6F 31F 32F 5 0% - 99% 0 mhos 2 None None - -
11/26/2014 01:41 Ice Warning 31.6F 31F 32F 5 0% - 99% 0 mhos 2 None None - -
11/26/2014 01:39 Ice Warning 31.6F 31F 32F 5 0% - 99% 0 mhos 2 None None - -
11/26/2014 01:31 Ice Warning 31.6F 31F 32F 5 0% - 99% 0 mhos 2 None None - -
11/26/2014 01:21 Ice Warning 31.6F 31F 32F 5 0% - 99% 0 mhos 2 None None - -
11/26/2014 01:11 Ice Warning 31.6F 31F 32F 5 0% - 99% 0 mhos 2 None None - -
Date/Time
(MST)
Sf
Temp Chem Water Layer Surface Precipitation
Sf Sub Frz Factor Pct Depth IcePct Cond Salin Type Intens Accum Rate
11/26/2014 01:10 Ice Warning 31.6F 31F 32F 5 0% - 99% 0 mhos 2 Yes - - -
11/26/2014 01:01 Ice Warning 31.8F 31F 32F 5 0% - 99% 0 mhos 1 None None - -
11/26/2014 00:51 Ice Warning 31.8F 31F 32F 5 0% - 99% 0 mhos 1 None None - -
11/26/2014 00:41 Ice Warning 31.8F 31F 32F 5 0% - 99% 0 mhos 1 None None - -
11/26/2014 00:41 Ice Warning 31.8F 31F 32F 5 0% - 99% 0 mhos 1 None None - -
11/26/2014 00:30 Ice Warning 31.8F 31F 32F 5 0% - 99% 0 mhos 1 None None - -
11/26/2014 00:21 Chemically Wet 32.0F 31F 32F 5 0% 0.10 in 0% 0 mhos 1 None None - -
11/26/2014 00:20 Chemically Wet 32.0F 31F 32F 5 0% 0.10 in 0% 0 mhos 1 None None - -
11/26/2014 00:10 Chemically Wet 32.0F 31F 32F 5 0% 0.00 in 0% 0 mhos 1 None None - -
11/26/2014 00:00 Chemically Wet 32.0F 31F 32F 5 0% 0.00 in 0% 0 mhos 1 None None - -
11/25/2014 23:58 Chemically Wet 32.0F 31F 32F 5 0% 0.00 in 0% 0 mhos 1 None None - -
11/25/2014 23:50 Chemically Wet 32.0F 31F 32F 5 0% 0.00 in 0% 0 mhos 1 None None - -
11/25/2014 23:40 Chemically Wet 32.0F 31F 32F 5 0% 0.00 in 0% 0 mhos 1 None None - -
11/25/2014 23:30 Wet 32.2F 31F 32F 5 0% 0.00 in 0% 0 mhos 1 None None - -
11/25/2014 23:20 Chemically Wet 32.0F 31F 32F 5 0% 0.00 in 0% 0 mhos 1 Yes - - -
Date/Time
(MST)
Sf
Temp Chem Water Layer Surface Precipitation
Sf Sub Frz Factor Pct Depth IcePct Cond Salin Type Intens Accum Rate
11/25/2014 23:10 Chemically Wet 32.0F 31F 32F 5 0% 0.00 in 0% 0 mhos 1 Yes - - -
11/25/2014 23:00 Wet 32.2F 31F 32F 5 0% 0.00 in 0% 0 mhos 1 None None - -
11/25/2014 22:50 Chemically Wet 32.0F 31F 32F 5 0% 0.00 in 0% 0 mhos 1 Yes - - -
11/25/2014 22:25 Wet 32.2F 31F 32F 5 0% 0.00 in 0% 0 mhos 1 None None - -
11/25/2014 22:20 Wet 32.2F 31F 32F 5 0% 0.00 in 0% 0 mhos 1 None None - -
11/25/2014 22:10 Chemically Wet 32.0F 31F 32F 5 0% 0.00 in 0% 0 mhos 1 None None - -
11/25/2014 22:00 Wet 32.2F 31F 32F 5 0% 0.00 in 0% 0 mhos 1 None None - -
11/25/2014 21:53 Wet 32.2F 31F 32F 5 0% 0.00 in 0% 0 mhos 1 None None - -
11/25/2014 21:50 Wet 32.2F 31F 32F 5 0% 0.00 in 0% 0 mhos 1 None None - -
11/25/2014 21:40 Chemically Wet 32.0F 31F 32F 5 0% 0.00 in 0% 0 mhos 1 None None - -
11/25/2014 21:30 Wet 32.2F 31F 32F 5 0% 0.20 in 0% 0 mhos 1 None None - -
11/25/2014 21:21 Chemically Wet 32.0F 31F 32F 5 0% 0.00 in 0% 0 mhos 1 Yes - - -
11/25/2014 21:20 Chemically Wet 32.0F 31F 32F 5 0% 0.20 in 0% 0 mhos 1 Yes - - -
11/25/2014 21:10 Chemically Wet 32.0F 31F 32F 5 0% 0.20 in 0% 0 mhos 1 Yes - - -
11/25/2014 21:00 Wet 32.2F 31F 32F 5 0% 0.20 in 0% 0 mhos 1 Yes - - -
Date/Time
(MST)
Sf
Temp Chem Water Layer Surface Precipitation
Sf Sub Frz Factor Pct Depth IcePct Cond Salin Type Intens Accum Rate
11/25/2014 20:55 Wet 32.2F 31F 32F 5 0% 0.20 in 0% 0 mhos 1 Yes - - -
11/25/2014 20:49 Wet 32.2F 31F 32F 5 0% 0.20 in 0% 0 mhos 1 Yes - - -
11/25/2014 20:39 Chemically Wet 32.0F 31F 32F 5 0% 0.20 in 0% 0 mhos 1 Yes - - -
11/25/2014 20:29 Wet 32.2F 31F 32F 5 0% 0.20 in 0% 0 mhos 1 Yes - - -
11/25/2014 20:22 Wet 32.2F 31F 32F 5 0% 0.00 in 0% 0 mhos 1 Yes - - -
11/25/2014 20:19 Wet 32.2F 31F 32F 15 0% 0.40 in 0% 0 mhos 1 Yes - - -
11/25/2014 20:09 Wet 32.2F 31F 32F 15 0% 0.20 in 0% 0 mhos 1 Yes - - -
11/25/2014 19:59 Wet 32.2F 31F 32F 15 0% 0.20 in 0% 0 mhos 1 Yes - - -
11/25/2014 19:53 Wet 32.2F 31F 32F 15 0% 0.20 in 0% 0 mhos 1 Yes - - -
11/25/2014 19:49 Wet 32.2F 31F 32F 15 0% 0.20 in 0% 0 mhos 1 Yes - - -
11/25/2014 19:39 Chemically Wet 32.0F 31F 32F 15 0% 0.20 in 0% 0 mhos 1 Yes - - -
11/25/2014 19:29 Wet 32.2F 31F 32F 20 0% 0.30 in 0% 0 mhos 1 Yes - - -
11/25/2014 19:25 Wet 32.2F 31F 32F 5 0% 0.00 in 0% 0 mhos 4 Yes - - -
11/25/2014 19:19 Wet 32.2F 31F 32F 5 0% 0.00 in 0% 0 mhos 4 Yes - - -
11/25/2014 19:09 Wet 32.2F 31F 32F 5 0% 0.10 in 0% 0 mhos 3 Yes - - -
Date/Time
(MST)
Sf
Temp Chem Water Layer Surface Precipitation
Sf Sub Frz Factor Pct Depth IcePct Cond Salin Type Intens Accum Rate
11/25/2014 19:03 Wet 32.2F 31F 32F 15 0% 0.10 in 0% 0 mhos 3 Yes - - -
11/25/2014 18:59 Chemically Wet 32.0F 31F 32F 10 0% 0.10 in 0% 0 mhos 2 Yes - - -
11/25/2014 18:51 Wet 32.2F 31F 32F 35 0% 0.00 in 0% 0 mhos 13 Yes - - -
11/25/2014 18:49 Chemically Wet 32.0F 31F 32F 35 0% 0.00 in 0% 0 mhos 13 Yes - - -
11/25/2014 18:39 Wet 32.2F 31F 32F 35 0% 0.00 in 0% 0 mhos 12 Yes - - -
11/25/2014 18:29 Wet 32.2F 31F 32F 45 0% 0.00 in 0% 0 mhos 14 Yes - - -
11/25/2014 18:22 Wet 32.2F 31F 32F 30 0% 0.00 in 0% 0 mhos 16 Yes - - -
11/25/2014 18:19 Wet 32.2F 31F 32F 30 0% 0.00 in 0% 0 mhos 17 Yes - - -
11/25/2014 18:09 Wet 32.2F 31F 32F 30 0% 0.00 in 0% 0 mhos 19 Yes - - -
11/25/2014 17:59 Chemically Wet 32.0F 31F 32F 15 0% 0.00 in 0% 0 mhos 22 Yes - - -
11/25/2014 17:52 Wet 32.2F 31F 32F 30 0% 0.00 in 0% 0 mhos 20 Yes - - -
11/25/2014 17:49 Wet 32.2F 31F 32F 35 0% 0.00 in 0% 0 mhos 20 Yes - - -
11/25/2014 17:39 Wet 32.2F 31F 32F 35 0% 0.00 in 0% 0 mhos 16 Yes - - -
11/25/2014 17:29 Wet 32.2F 31F 32F 25 0% 0.00 in 0% 0 mhos 18 Yes - - -
11/25/2014 17:21 Wet 32.2F 31F 32F 35 0% 0.00 in 0% 0 mhos 11 Yes - - -
Date/Time
(MST)
Sf
Temp Chem Water Layer Surface Precipitation
Sf Sub Frz Factor Pct Depth IcePct Cond Salin Type Intens Accum Rate
11/25/2014 17:19 Wet 32.2F 31F 32F 35 0% 0.00 in 0% 0 mhos 11 Yes - - -
11/25/2014 17:08 Wet 32.2F 31F 32F 35 0% 0.00 in 0% 0 mhos 11 Yes - - -
11/25/2014 17:02 Wet 32.2F 31F 32F 20 0% 0.00 in 0% 0 mhos 11 Yes - - -
11/25/2014 16:58 Wet 32.2F 31F 32F 15 0% 0.00 in 0% 0 mhos 12 Yes - - -
11/25/2014 16:51 Wet 32.2F 31F 32F 5 0% 0.00 in 0% 0 mhos 13 Yes - - -
11/25/2014 16:48 Wet 32.2F 31F 32F 5 0% 0.00 in 0% 0 mhos 14 Yes - - -
11/25/2014 16:38 Wet 32.2F 31F 32F 35 0% 0.00 in 0% 0 mhos 14 Yes - - -
11/25/2014 16:34 Wet 32.2F 31F 32F 25 0% 0.00 in 0% 0 mhos 14 Yes - - -
11/25/2014 16:28 Wet 32.2F 31F 32F 5 0% 0.00 in 0% 0 mhos 17 Yes - - -
11/25/2014 16:21 Wet 32.2F 31F 32F 30 0% 0.00 in 0% 0 mhos 19 Yes - - -
11/25/2014 16:18 Wet 32.2F 31F 32F 50 0% 0.00 in 0% 0 mhos 19 Yes - - -
11/25/2014 16:08 Wet 32.2F 31F 32F 60 0% 0.00 in 0% 0 mhos 22 Yes - - -
11/25/2014 16:02 Wet 32.2F 31F 32F 95 0% 0.10 in 0% 0 mhos 20 Yes - - -
11/25/2014 15:58 Wet 32.2F 31F 32F 95 0% 0.10 in 0% 0 mhos 24 Yes - - -
11/25/2014 15:51 Wet 32.2F 31F 32F 55 0% 0.00 in 0% 0 mhos 24 Yes - - -
Date/Time
(MST)
Sf
Temp Chem Water Layer Surface Precipitation
Sf Sub Frz Factor Pct Depth IcePct Cond Salin Type Intens Accum Rate
11/25/2014 15:48 Wet 32.2F 31F 32F 95 0% 0.00 in 0% 1 mhos 86 Yes - - -
11/25/2014 15:38 Wet 32.5F 31F 32F 60 0% 0.00 in 0% 0 mhos 44 Yes - - -
11/25/2014 15:32 Wet 32.5F 31F 32F 40 0% 0.00 in 0% 1 mhos 97 Yes - - -
11/25/2014 15:28 Wet 33.1F 31F 32F 45 0% 0.00 in 0% 1 mhos 109 Yes - - -
11/25/2014 15:21 Wet 34.0F 31F 32F 55 1% 0.00 in 0% 1 mhos 143 Yes - - -
11/25/2014 15:18 Wet 34.3F 31F 32F 55 0% 0.00 in 0% 1 mhos 122 Yes - - -
11/25/2014 15:08 Wet 34.9F 31F 32F 50 0% 0.00 in 0% 1 mhos 128 Yes - - -
11/25/2014 14:58 Wet 35.1F 31F 32F 40 0% 0.00 in 0% 1 mhos 124 Yes - - -
11/25/2014 14:53 Wet 35.2F 31F 32F 65 1% 0.00 in 0% 1 mhos 141 Yes - - -
11/25/2014 14:48 Wet 35.4F 31F 32F 60 0% 0.00 in 0% 1 mhos 95 Yes - - -
11/25/2014 14:38 Wet 35.2F 31F 32F 60 1% 0.00 in 0% 1 mhos 143 Yes - - -
11/25/2014 14:28 Wet 35.2F 31F 32F 85 1% 0.00 in 0% 2 mhos 175 Yes - - -
11/25/2014 14:28 Wet 35.2F 31F 32F 85 1% 0.00 in 0% 2 mhos 175 Yes - - -
11/25/2014 14:18 Wet 35.1F 31F 32F 80 1% 0.00 in 0% 1 mhos 147 Yes - - -
11/25/2014 14:08 Wet 35.1F 31F 32F 85 1% 0.00 in 0% 2 mhos 165 Yes - - -
Date/Time
(MST)
Sf
Temp Chem Water Layer Surface Precipitation
Sf Sub Frz Factor Pct Depth IcePct Cond Salin Type Intens Accum Rate
11/25/2014 13:58 Wet 34.9F 31F 32F 95 1% 0.00 in 0% 2 mhos 162 Yes - - -
11/25/2014 13:52 Wet 34.9F 31F 32F 95 1% 0.00 in 0% 2 mhos 160 Yes - - -
11/25/2014 13:48 Wet 34.9F 31F 32F 75 0% 0.00 in 0% 1 mhos 120 Yes - - -
11/25/2014 13:38 Wet 34.2F 31F 32F 95 1% 0.10 in 0% 1 mhos 148 Yes - - -
11/25/2014 13:28 Wet 33.6F 31F 32F 70 1% 0.00 in 0% 1 mhos 135 Yes - - -
11/25/2014 13:23 Wet 33.3F 31F 32F 95 0% 0.10 in 0% 1 mhos 110 Yes - - -
11/25/2014 13:18 Wet 32.5F 31F 32F 95 0% 0.20 in 0% 1 mhos 107 Yes - - -
11/25/2014 13:07 Wet 32.5F 31F 32F 70 0% 0.00 in 0% 1 mhos 104 Yes - - -
11/25/2014 12:57 Wet 32.5F 31F 32F 95 0% 0.20 in 0% 1 mhos 76 Yes - - -
11/25/2014 12:52 Wet 32.4F 31F 32F 95 0% 0.10 in 0% 1 mhos 66 Yes - - -
11/25/2014 12:47 Wet 32.2F 31F 32F 60 0% 0.00 in 0% 0 mhos 23 Yes - - -
11/25/2014 12:37 Wet 32.2F 31F 32F 60 0% 0.00 in 0% 0 mhos 26 Yes - - -
11/25/2014 12:27 Wet 32.2F 31F 32F 65 0% 0.00 in 0% 0 mhos 16 Yes - - -
11/25/2014 12:22 Wet 32.2F 31F 32F 50 0% 0.00 in 0% 0 mhos 11 Yes - - -
11/25/2014 12:17 Wet 32.2F 31F 32F 25 0% 0.00 in 0% 0 mhos 6 Yes - - -
Date/Time
(MST)
Sf
Temp Chem Water Layer Surface Precipitation
Sf Sub Frz Factor Pct Depth IcePct Cond Salin Type Intens Accum Rate
11/25/2014 12:07 Chemically Wet 32.0F 31F 32F 45 0% 0.00 in 0% 0 mhos 17 Yes - - -
11/25/2014 12:06 Chemically Wet 32.0F 31F 32F 40 0% 0.00 in 0% 0 mhos 17 Yes - - -
11/25/2014 11:57 Chemically Wet 32.0F 31F 32F 25 0% 0.00 in 0% 0 mhos 18 Yes - - -
11/25/2014 11:51 Wet 32.2F 31F 32F 95 0% 0.10 in 0% 0 mhos 17 Yes - - -
11/25/2014 11:47 Chemically Wet 32.0F 31F 32F 80 0% 0.00 in 0% 0 mhos 17 Yes - - -
11/25/2014 11:37 Chemically Wet 32.0F 31F 32F 95 0% 0.00 in 0% 0 mhos 31 Yes - - -
11/25/2014 11:27 Chemically Wet 32.0F 31F 32F 60 0% 0.00 in 0% 0 mhos 34 Yes - - -
11/25/2014 11:22 Wet 32.2F 31F 32F 15 0% 0.00 in 0% 0 mhos 26 Yes - - -
11/25/2014 11:17 Wet 32.2F 31F 32F 35 0% 0.00 in 0% 0 mhos 30 Yes - - -
11/25/2014 11:07 Wet 32.2F 31F 32F 85 0% 0.00 in 0% 0 mhos 26 Yes - - -
11/25/2014 10:57 Wet 32.5F 31F 32F 95 1% 0.00 in 0% 1 mhos 142 Yes - - -
11/25/2014 10:55 Wet 32.5F 31F 32F 95 1% 0.10 in 0% 1 mhos 139 Yes - - -
11/25/2014 10:47 Wet 32.7F 31F 32F 95 1% 0.10 in 0% 2 mhos 167 Yes - - -
11/25/2014 10:37 Wet 32.5F 31F 32F 95 1% 0.00 in 0% 2 mhos 185 Yes - - -
11/25/2014 10:27 Wet 33.3F 31F 32F 95 1% 0.00 in 0% 2 mhos 174 Yes - - -
Date/Time
(MST)
Sf
Temp Chem Water Layer Surface Precipitation
Sf Sub Frz Factor Pct Depth IcePct Cond Salin Type Intens Accum Rate
11/25/2014 10:27 Wet 33.3F 31F 32F 95 1% 0.00 in 0% 2 mhos 174 Yes - - -
11/25/2014 10:17 Wet 32.9F 31F 32F 95 1% 0.10 in 0% 2 mhos 174 Yes - - -
11/25/2014 10:07 Wet 32.7F 31F 32F 95 1% 0.00 in 0% 2 mhos 166 Yes - - -
11/25/2014 09:57 Wet 32.2F 31F 32F 95 1% 0.10 in 0% 2 mhos 178 Yes - - -
11/25/2014 09:52 Chemically Wet 32.0F 31F 32F 95 1% 0.10 in 0% 2 mhos 191 Yes - - -
11/25/2014 09:47 Chemically Wet 32.0F 31F 32F 95 1% 0.00 in 0% 2 mhos 185 Yes - - -
11/25/2014 09:37 Chemically Wet 31.8F 31F 32F 95 1% 0.20 in 0% 3 mhos 326 Yes - - -
11/25/2014 09:26 Chemically Wet 31.6F 31F 32F 95 1% - 47% 1 mhos 154 Yes - - -
11/25/2014 09:23 Chemically Wet 31.8F 31F 32F 95 0% - 10% 1 mhos 127 Yes - - -
11/25/2014 09:16 Chemically Wet 31.6F 31F 32F 95 1% - 45% 1 mhos 160 Yes - - -
11/25/2014 09:06 Chemically Wet 31.6F 31F 32F 95 0% - 63% 1 mhos 108 Yes - - -
11/25/2014 08:56 Chemically Wet 31.5F 31F 32F 95 0% - 76% 1 mhos 108 Yes - - -
11/25/2014 08:51 Chemically Wet 31.5F 31F 32F 95 0% - 76% 1 mhos 108 Yes - - -
11/25/2014 08:46 Chemically Wet 31.5F 31F 32F 95 0% - 82% 1 mhos 105 Yes - - -
11/25/2014 08:36 Ice Warning 31.5F 31F 32F 95 0% - 87% 1 mhos 79 Yes - - -
Date/Time
(MST)
Sf
Temp Chem Water Layer Surface Precipitation
Sf Sub Frz Factor Pct Depth IcePct Cond Salin Type Intens Accum Rate
11/25/2014 08:26 Ice Warning 31.5F 31F 32F 95 0% - 87% 1 mhos 76 Yes - - -
11/25/2014 08:23 Chemically Wet 31.5F 31F 32F 95 0% - 84% 1 mhos 97 Yes - - -
11/25/2014 08:16 Ice Warning 31.5F 31F 32F 95 0% - 89% 0 mhos 47 Yes - - -
11/25/2014 08:06 Ice Warning 31.5F 31F 32F 95 0% - 92% 0 mhos 38 Yes - - -
11/25/2014 08:06 Ice Warning 31.5F 31F 32F 95 0% - 92% 0 mhos 38 Yes - - -
11/25/2014 07:56 Ice Warning 31.5F 31F 32F 95 0% - 92% 0 mhos 36 Yes - - -
11/25/2014 07:51 Ice Warning 31.5F 31F 32F 95 0% - 91% 0 mhos 42 Yes - - -
11/25/2014 07:46 Ice Warning 31.5F 31F 32F 95 0% - 92% 0 mhos 34 Yes - - -
11/25/2014 07:36 Ice Warning 31.5F 31F 32F 90 0% - 94% 0 mhos 34 Yes - - -
11/25/2014 07:29 Ice Warning 31.5F 31F 32F 90 0% - 95% 0 mhos 29 Yes - - -
11/25/2014 07:26 Ice Warning 31.5F 31F 32F 90 0% - 95% 0 mhos 28 Yes - - -
11/25/2014 07:16 Ice Warning 31.5F 31F 32F 95 0% - 95% 0 mhos 29 Yes - - -
11/25/2014 07:06 Ice Warning 31.3F 32F 32F 95 0% - 96% 0 mhos 26 Yes - - -
11/25/2014 06:56 Ice Warning 31.3F 31F 32F 95 0% - 96% 0 mhos 29 Yes - - -
11/25/2014 06:51 Ice Warning 31.3F 31F 32F 55 0% - 96% 0 mhos 31 Yes - - -
Date/Time
(MST)
Sf
Temp Chem Water Layer Surface Precipitation
Sf Sub Frz Factor Pct Depth IcePct Cond Salin Type Intens Accum Rate
11/25/2014 06:46 Ice Warning 31.1F 31F 32F 55 0% - 97% 0 mhos 31 Yes - - -
11/25/2014 06:36 Ice Warning 31.1F 31F 32F 55 0% - 96% 0 mhos 32 Yes - - -
11/25/2014 06:26 Ice Warning 30.9F 31F 32F 65 0% - 97% 0 mhos 33 Yes - - -
11/25/2014 06:23 Ice Warning 30.9F 31F 32F 55 0% - 97% 0 mhos 35 Yes - - -
11/25/2014 06:16 Ice Warning 30.7F 31F 32F 55 0% - 97% 0 mhos 35 Yes - - -
11/25/2014 06:10 Ice Warning 30.7F 31F 32F 55 0% - 97% 0 mhos 35 Yes - - -
11/25/2014 06:06 Ice Warning 30.7F 31F 32F 55 0% - 97% 0 mhos 35 Yes - - -
11/25/2014 05:56 Ice Warning 30.7F 31F 32F 55 0% - 97% 0 mhos 36 Yes - - -
11/25/2014 05:51 Ice Warning 30.7F 31F 32F 60 0% - 97% 0 mhos 41 Yes - - -
11/25/2014 05:46 Ice Warning 30.7F 31F 32F 60 0% - 97% 0 mhos 41 Yes - - -
11/25/2014 05:36 Ice Warning 30.6F 31F 32F 40 0% - 95% 1 mhos 63 Yes - - -
11/25/2014 05:28 Ice Warning 30.6F 31F 32F 40 0% - 95% 1 mhos 62 Yes - - -
11/25/2014 05:25 Ice Warning 30.6F 31F 32F 40 0% - 96% 1 mhos 61 Yes - - -
11/25/2014 05:15 Ice Warning 30.6F 31F 32F 40 0% - 96% 0 mhos 53 Yes - - -
11/25/2014 05:05 Ice Warning 30.6F 31F 32F 65 0% - 97% 0 mhos 46 Yes - - -
Date/Time
(MST)
Sf
Temp Chem Water Layer Surface Precipitation
Sf Sub Frz Factor Pct Depth IcePct Cond Salin Type Intens Accum Rate
11/25/2014 04:57 Ice Warning 30.6F 31F 32F 65 0% - 97% 0 mhos 46 Yes - - -
11/25/2014 04:55 Ice Warning 30.6F 31F 32F 65 0% - 97% 0 mhos 46 Yes - - -
11/25/2014 04:45 Ice Warning 30.6F 31F 32F 60 0% - 97% 0 mhos 47 Yes - - -
11/25/2014 04:35 Ice Warning 30.6F 31F 32F 65 0% - 97% 0 mhos 47 Yes - - -
11/25/2014 04:25 Ice Warning 30.6F 31F 32F 65 0% - 97% 0 mhos 47 Yes - - -
11/25/2014 04:21 Ice Warning 30.6F 31F 32F 60 0% - 97% 0 mhos 47 Yes - - -
11/25/2014 04:15 Ice Warning 30.6F 31F 32F 60 0% - 97% 0 mhos 47 Yes - - -
11/25/2014 04:05 Ice Warning 30.4F 31F 32F 60 0% - 97% 0 mhos 48 Yes - - -
11/25/2014 04:02 Ice Warning 30.4F 31F 32F 60 0% - 97% 0 mhos 48 Yes - - -
11/25/2014 03:55 Ice Warning 30.4F 31F 32F 60 0% - 97% 0 mhos 48 Yes - - -
11/25/2014 03:45 Ice Warning 30.4F 31F 32F 60 0% - 97% 0 mhos 48 Yes - - -
11/25/2014 03:41 Ice Warning 30.4F 31F 32F 60 0% - 97% 0 mhos 48 Yes - - -
11/25/2014 03:35 Ice Warning 30.4F 31F 32F 60 0% - 97% 0 mhos 48 Yes - - -
11/25/2014 03:25 Ice Warning 30.4F 31F 32F 55 0% - 97% 0 mhos 49 Yes - - -
11/25/2014 03:21 Ice Warning 30.4F 31F 32F 55 0% - 97% 0 mhos 49 Yes - - -
Date/Time
(MST)
Sf
Temp Chem Water Layer Surface Precipitation
Sf Sub Frz Factor Pct Depth IcePct Cond Salin Type Intens Accum Rate
11/25/2014 03:15 Ice Warning 30.4F 31F 32F 60 0% - 97% 0 mhos 49 Yes - - -
11/25/2014 03:05 Ice Warning 30.4F 31F 32F 55 0% - 97% 0 mhos 49 Yes - - -
11/25/2014 03:02 Ice Warning 30.4F 31F 32F 55 0% - 97% 0 mhos 49 Yes - - -
11/25/2014 02:55 Ice Warning 30.2F 31F 32F 55 0% - 97% 0 mhos 49 Yes - - -
Change End Date:
Copyright © 1998-2005 Surface Systems, Inc.
All Rights Reserved
Send comments about the data to:
SCAN Web ® is a registered trademark of Surface Systems, Inc.
SCAN Web Version 5.6